| time (UTC) | temp F | wind direction | speed knots | gust knots | rain 1hr in | rain 24hr in | rain mn in | humidity % | barometer mb |
| 20260831124204 | 53 | 50 | 0.9 | 1.7 | 0.00 | 0.31 | 0.01 | 96 | 1020.7 |
| 20260831122704 | 52 | 50 | 0.9 | 1.7 | 0.00 | 0.31 | 0.01 | 96 | 1020.6 |
| 20260831122204 | 52 | 50 | 0.0 | 2.6 | 0.00 | 0.31 | 0.01 | 96 | 1020.6 |
| 20260831120704 | 51 | 49 | 0.0 | 0.9 | 0.00 | 0.31 | 0.01 | 96 | 1020.3 |
| 20260831120204 | 50 | 49 | 0.9 | 1.7 | 0.00 | 0.31 | 0.01 | 96 | 1020.3 |
| 20260831114704 | 49 | 49 | 0.9 | 1.7 | 0.01 | 0.31 | 0.01 | 96 | 1020.3 |
| 20260831114204 | 49 | 49 | 0.9 | 1.7 | 0.01 | 0.31 | 0.01 | 96 | 1020.3 |
| 20260831112704 | 48 | 49 | 0.0 | 1.7 | 0.01 | 0.31 | 0.01 | 96 | 1020.2 |
| 20260831112204 | 48 | 49 | 0.9 | 1.7 | 0.01 | 0.31 | 0.01 | 96 | 1020.1 |
| 20260831110704 | 47 | 49 | 0.0 | 0.9 | 0.01 | 0.31 | 0.01 | 95 | 1020.0 |
| 20260831104704 | 46 | 49 | 0.0 | 0.9 | 0.00 | 0.31 | 0.00 | 95 | 1020.0 |
| 20260831104204 | 46 | 49 | 0.0 | 1.7 | 0.00 | 0.31 | 0.00 | 95 | 1019.9 |
| 20260831102704 | 46 | 49 | 0.9 | 1.7 | 0.00 | 0.31 | 0.00 | 95 | 1019.7 |
| 20260831102204 | 46 | 49 | 0.9 | 1.7 | 0.00 | 0.31 | 0.00 | 95 | 1019.6 |
| 20260831100704 | 46 | 49 | 0.9 | 1.7 | 0.00 | 0.31 | 0.00 | 95 | 1019.6 |
| 20260831100204 | 46 | 49 | 0.9 | 2.6 | 0.00 | 0.31 | 0.00 | 95 | 1019.5 |
| 20260831094704 | 46 | 46 | 0.0 | 0.9 | 0.00 | 0.31 | 0.00 | 95 | 1019.3 |
| 20260831094204 | 47 | 46 | 0.9 | 1.7 | 0.00 | 0.31 | 0.00 | 95 | 1019.3 |
| 20260831092704 | 47 | 46 | 0.0 | 0.9 | 0.00 | 0.31 | 0.00 | 95 | 1019.2 |
| 20260831092204 | 47 | 46 | 0.0 | 0.9 | 0.00 | 0.31 | 0.00 | 95 | 1019.3 |
| 20260831090704 | 47 | 46 | 0.0 | 0.0 | 0.00 | 0.31 | 0.00 | 95 | 1019.1 |
| 20260831090204 | 47 | 46 | 0.0 | 0.9 | 0.00 | 0.31 | 0.00 | 95 | 1019.0 |
| 20260831084704 | 47 | 46 | 0.0 | 0.0 | 0.00 | 0.31 | 0.00 | 95 | 1018.9 |
| 20260831082704 | 48 | 46 | 0.0 | 0.9 | 0.00 | 0.31 | 0.00 | 95 | 1018.9 |
| 20260831082204 | 48 | 46 | 0.0 | 1.7 | 0.00 | 0.31 | 0.00 | 95 | 1018.9 |
| 20260831080703 | 48 | 46 | 0.0 | 0.0 | 0.00 | 0.31 | 0.00 | 95 | 1018.8 |
| 20260831080203 | 48 | 46 | 0.0 | 0.0 | 0.00 | 0.31 | 0.00 | 95 | 1018.8 |
| 20260831072705 | 49 | 46 | 0.0 | 0.9 | 0.00 | 0.31 | 0.00 | 95 | 1018.8 |
| 20260831064705 | 50 | 46 | 0.0 | 0.0 | 0.00 | 0.31 | 0.00 | 95 | 1018.7 |
| 20260831064205 | 50 | 46 | 0.0 | 0.0 | 0.00 | 0.31 | 0.00 | 95 | 1018.7 |
| 20260831062705 | 51 | 46 | 0.0 | 0.0 | 0.00 | 0.31 | 0.00 | 95 | 1018.7 |
| 20260831062205 | 51 | 46 | 0.0 | 0.0 | 0.00 | 0.31 | 0.00 | 95 | 1018.7 |
| 20260831060705 | 51 | 46 | 0.0 | 0.0 | 0.00 | 0.31 | 0.00 | 95 | 1018.7 |
| 20260831060205 | 51 | 46 | 0.0 | 0.0 | 0.00 | 0.31 | 0.00 | 95 | 1018.8 |
| 20260831054205 | 52 | 46 | 0.0 | 1.7 | 0.00 | 0.31 | 0.00 | 95 | 1018.8 |
| 20260831052705 | 52 | 46 | 0.0 | 0.0 | 0.00 | 0.31 | 0.00 | 95 | 1018.5 |
| 20260831052205 | 52 | 46 | 0.0 | 0.9 | 0.00 | 0.31 | 0.00 | 95 | 1018.6 |
| 20260831050705 | 52 | 46 | 0.0 | 0.9 | 0.00 | 0.31 | 0.00 | 95 | 1018.6 |
| 20260831050205 | 52 | 46 | 0.9 | 1.7 | 0.00 | 0.32 | 0.00 | 95 | 1018.6 |
| 20260831044706 | 53 | 46 | 0.0 | 0.0 | 0.00 | 0.36 | 0.00 | 95 | 1018.5 |
| 20260831042705 | 53 | 46 | 0.0 | 0.0 | 0.00 | 0.40 | 0.00 | 95 | 1018.6 |
| 20260831042205 | 53 | 46 | 0.0 | 0.9 | 0.00 | 0.41 | 0.00 | 95 | 1018.5 |
| 20260831040705 | 53 | 46 | 0.0 | 0.0 | 0.00 | 0.41 | 0.00 | 95 | 1018.4 |
| 20260831040205 | 54 | 46 | 0.0 | 1.7 | 0.00 | 0.41 | 0.00 | 95 | 1018.4 |
| 20260831034705 | 54 | 46 | 0.0 | 0.0 | 0.00 | 0.41 | 0.41 | 94 | 1018.4 |
| 20260831034205 | 54 | 46 | 0.0 | 0.0 | 0.00 | 0.41 | 0.41 | 95 | 1018.3 |
| 20260831032705 | 54 | 46 | 0.0 | 0.0 | 0.00 | 0.41 | 0.41 | 94 | 1018.1 |
| 20260831032204 | 54 | 46 | 0.0 | 0.9 | 0.00 | 0.41 | 0.41 | 94 | 1018.1 |
| 20260831030705 | 54 | 46 | 0.0 | 0.0 | 0.00 | 0.41 | 0.41 | 94 | 1017.7 |
| 20260831030205 | 55 | 46 | 0.0 | 0.0 | 0.00 | 0.41 | 0.41 | 94 | 1017.6 |
| 20260831024704 | 55 | 46 | 0.0 | 0.0 | 0.00 | 0.41 | 0.41 | 94 | 1017.6 |
| 20260831024205 | 55 | 46 | 0.0 | 0.0 | 0.00 | 0.41 | 0.41 | 94 | 1017.6 |
| 20260831022705 | 56 | 46 | 0.0 | 0.0 | 0.00 | 0.41 | 0.41 | 94 | 1017.4 |
| 20260831022205 | 56 | 46 | 0.0 | 1.7 | 0.00 | 0.41 | 0.41 | 94 | 1017.2 |
| 20260831020705 | 56 | 46 | 0.9 | 2.6 | 0.00 | 0.41 | 0.41 | 94 | 1017.0 |
| 20260831020205 | 56 | 41 | 0.0 | 0.9 | 0.00 | 0.41 | 0.41 | 94 | 1017.1 |
| 20260831014705 | 57 | 40 | 0.9 | 0.9 | 0.00 | 0.41 | 0.41 | 93 | 1017.2 |
| 20260831014205 | 57 | 40 | 0.0 | 1.7 | 0.00 | 0.41 | 0.41 | 93 | 1017.2 |
| 20260831012705 | 57 | 40 | 0.0 | 0.9 | 0.00 | 0.41 | 0.41 | 93 | 1017.0 |
| 20260831012205 | 57 | 40 | 0.0 | 0.9 | 0.00 | 0.41 | 0.41 | 93 | 1016.9 |
| 20260831010705 | 58 | 40 | 0.0 | 0.0 | 0.00 | 0.41 | 0.41 | 92 | 1016.8 |
| 20260831010205 | 58 | 40 | 0.0 | 0.0 | 0.00 | 0.41 | 0.41 | 92 | 1016.5 |
| 20260831004704 | 58 | 40 | 0.0 | 0.0 | 0.00 | 0.41 | 0.41 | 91 | 1016.4 |
| 20260831004206 | 59 | 40 | 0.0 | 0.9 | 0.00 | 0.41 | 0.41 | 91 | 1016.3 |
| 20260831002705 | 59 | 40 | 0.0 | 0.9 | 0.00 | 0.41 | 0.41 | 91 | 1015.9 |
| 20260831002205 | 59 | 40 | 0.0 | 1.7 | 0.00 | 0.41 | 0.41 | 92 | 1015.9 |
| 20260831000705 | 59 | 40 | 0.0 | 0.9 | 0.00 | 0.41 | 0.41 | 92 | 1015.5 |
| 20260831000205 | 60 | 40 | 0.0 | 0.9 | 0.00 | 0.41 | 0.41 | 92 | 1015.4 |
| 20260830234704 | 60 | 40 | 0.0 | 0.0 | 0.00 | 0.41 | 0.41 | 91 | 1015.1 |
| 20260830234204 | 60 | 40 | 0.0 | 1.7 | 0.00 | 0.41 | 0.41 | 91 | 1014.9 |
| 20260830232705 | 61 | 40 | 0.0 | 0.9 | 0.00 | 0.41 | 0.41 | 90 | 1014.7 |
| 20260830232205 | 61 | 40 | 0.0 | 0.9 | 0.00 | 0.41 | 0.41 | 90 | 1014.6 |
| 20260830224705 | 63 | 40 | 0.0 | 0.9 | 0.02 | 0.41 | 0.41 | 84 | 1014.4 |
| 20260830224205 | 63 | 40 | 0.0 | 1.7 | 0.17 | 0.41 | 0.41 | 84 | 1014.5 |
| 20260830222705 | 63 | 40 | 0.0 | 0.9 | 0.17 | 0.41 | 0.41 | 88 | 1014.5 |
| 20260830222204 | 62 | 41 | 0.9 | 2.6 | 0.17 | 0.41 | 0.41 | 90 | 1014.4 |
| 20260830220705 | 62 | 5 | 0.0 | 0.9 | 0.17 | 0.41 | 0.41 | 90 | 1014.5 |
| 20260830220204 | 61 | 5 | 0.9 | 2.6 | 0.17 | 0.41 | 0.41 | 89 | 1014.1 |
| 20260830214704 | 66 | 358 | 2.6 | 7.0 | 0.16 | 0.39 | 0.39 | 81 | 1014.2 |
| 20260830214204 | 71 | 331 | 2.6 | 6.1 | 0.00 | 0.24 | 0.24 | 82 | 1013.8 |
| 20260830212205 | 71 | 271 | 1.7 | 4.3 | 0.00 | 0.24 | 0.24 | 83 | 1013.0 |
| 20260830210705 | 71 | 268 | 1.7 | 2.6 | 0.00 | 0.24 | 0.24 | 83 | 1013.1 |
| 20260830210204 | 71 | 260 | 1.7 | 4.3 | 0.00 | 0.24 | 0.24 | 84 | 1013.0 |
| 20260830204205 | 68 | 266 | 1.7 | 2.6 | 0.00 | 0.24 | 0.24 | 88 | 1012.9 |
| 20260830202705 | 65 | 266 | 1.7 | 2.6 | 0.00 | 0.24 | 0.24 | 90 | 1012.8 |
| 20260830200705 | 64 | 266 | 0.9 | 1.7 | 0.01 | 0.24 | 0.24 | 90 | 1013.0 |
| 20260830200205 | 64 | 266 | 1.7 | 2.6 | 0.01 | 0.24 | 0.24 | 90 | 1012.9 |
| 20260830194704 | 63 | 266 | 0.9 | 2.6 | 0.13 | 0.24 | 0.24 | 91 | 1013.0 |
| 20260830194204 | 63 | 267 | 2.6 | 4.3 | 0.13 | 0.24 | 0.24 | 91 | 1012.9 |
| 20260830192704 | 63 | 269 | 1.7 | 2.6 | 0.13 | 0.24 | 0.24 | 91 | 1012.9 |
| 20260830192204 | 63 | 273 | 1.7 | 2.6 | 0.13 | 0.24 | 0.24 | 91 | 1012.8 |
| 20260830190705 | 64 | 277 | 1.7 | 2.6 | 0.13 | 0.23 | 0.23 | 89 | 1012.9 |
| 20260830190205 | 64 | 267 | 2.6 | 24.3 | 0.13 | 0.23 | 0.23 | 87 | 1013.1 |
| 20260830184704 | 71 | 286 | 3.5 | 11.3 | 0.00 | 0.10 | 0.10 | 78 | 1012.7 |
| 20260830184205 | 71 | 272 | 4.3 | 12.2 | 0.00 | 0.10 | 0.10 | 78 | 1012.5 |
| 20260830182704 | 71 | 274 | 0.9 | 2.6 | 0.00 | 0.10 | 0.10 | 80 | 1012.7 |
| 20260830182204 | 71 | 286 | 2.6 | 6.1 | 0.00 | 0.10 | 0.10 | 81 | 1012.9 |
| 20260830180704 | 72 | 287 | 2.6 | 5.2 | 0.00 | 0.10 | 0.10 | 78 | 1013.1 |
| 20260830174204 | 71 | 277 | 2.6 | 7.8 | 0.00 | 0.10 | 0.10 | 79 | 1013.3 |
| 20260830172704 | 72 | 273 | 1.7 | 6.1 | 0.00 | 0.10 | 0.10 | 80 | 1013.5 |
| 20260830172204 | 72 | 272 | 3.5 | 8.7 | 0.00 | 0.10 | 0.10 | 78 | 1013.5 |
| 20260830170205 | 71 | 292 | 3.5 | 7.0 | 0.00 | 0.10 | 0.10 | 79 | 1014.0 |
| 20260830164704 | 71 | 276 | 2.6 | 5.2 | 0.00 | 0.10 | 0.10 | 78 | 1014.1 |
| 20260830164204 | 72 | 269 | 2.6 | 6.1 | 0.00 | 0.10 | 0.10 | 78 | 1014.1 |
| 20260830162204 | 72 | 273 | 4.3 | 7.0 | 0.00 | 0.10 | 0.10 | 77 | 1014.4 |
| 20260830160704 | 71 | 264 | 1.7 | 4.3 | 0.00 | 0.10 | 0.10 | 79 | 1014.6 |
| 20260830160204 | 70 | 276 | 3.5 | 6.1 | 0.00 | 0.10 | 0.10 | 79 | 1014.8 |
| 20260830154204 | 70 | 264 | 3.5 | 7.0 | 0.00 | 0.10 | 0.10 | 79 | 1015.0 |
| 20260830152704 | 70 | 266 | 2.6 | 6.1 | 0.00 | 0.10 | 0.10 | 80 | 1015.0 |
| 20260830152204 | 71 | 266 | 1.7 | 6.1 | 0.00 | 0.10 | 0.10 | 79 | 1015.0 |
| 20260830150704 | 70 | 238 | 1.7 | 6.1 | 0.00 | 0.10 | 0.10 | 81 | 1015.0 |
| 20260830150204 | 69 | 305 | 1.7 | 5.2 | 0.00 | 0.10 | 0.10 | 81 | 1015.0 |
| 20260830144204 | 67 | 277 | 2.6 | 7.0 | 0.00 | 0.10 | 0.10 | 83 | 1015.2 |
| 20260830142704 | 66 | 279 | 3.5 | 7.0 | 0.00 | 0.10 | 0.10 | 84 | 1015.3 |
| 20260830140704 | 66 | 283 | 2.6 | 5.2 | 0.00 | 0.10 | 0.10 | 83 | 1015.4 |
| 20260830140204 | 66 | 247 | 2.6 | 7.8 | 0.00 | 0.10 | 0.10 | 84 | 1015.4 |
| 20260830134704 | 66 | 273 | 2.6 | 7.0 | 0.00 | 0.10 | 0.10 | 85 | 1015.4 |
| 20260830134204 | 66 | 276 | 1.7 | 4.3 | 0.00 | 0.10 | 0.10 | 85 | 1015.3 |
| 20260830132704 | 65 | 278 | 0.9 | 4.3 | 0.00 | 0.10 | 0.10 | 86 | 1015.3 |
| 20260830132204 | 65 | 268 | 1.7 | 4.3 | 0.00 | 0.10 | 0.10 | 86 | 1015.4 |
| 20260830130704 | 64 | 180 | 1.7 | 2.6 | 0.00 | 0.10 | 0.10 | 89 | 1015.5 |